| time (UTC) | temp C | wind direction | speed KPH | gust KPH | rain 1hr cm | rain 24hr cm | rain mn cm | humidity % | barometer mb |
| 20260510164514 | 14 | 285 | 4.8 | 17.7 | 0.00 | 0.08 | 0.00 | 34 | 1019.1 |
| 20260510164008 | 14 | 288 | 6.4 | 19.3 | 0.00 | 0.08 | 0.00 | 32 | 1019.1 |
| 20260510163508 | 14 | 24 | 6.4 | 19.3 | 0.00 | 0.08 | 0.00 | 34 | 1019.1 |
| 20260510163007 | 14 | 308 | 4.8 | 16.1 | 0.00 | 0.08 | 0.00 | 37 | 1019.2 |
| 20260510162506 | 14 | 175 | 8.0 | 16.1 | 0.00 | 0.08 | 0.00 | 33 | 1019.0 |
| 20260510162004 | 13 | 337 | 4.8 | 22.5 | 0.00 | 0.08 | 0.00 | 36 | 1019.2 |
| 20260510161503 | 13 | 286 | 6.4 | 22.5 | 0.00 | 0.08 | 0.00 | 36 | 1019.1 |
| 20260510161002 | 13 | 249 | 4.8 | 14.5 | 0.00 | 0.08 | 0.00 | 35 | 1019.0 |
| 20260510160503 | 13 | 240 | 4.8 | 19.3 | 0.00 | 0.08 | 0.00 | 34 | 1019.0 |
| 20260510160059 | 13 | 304 | 8.0 | 22.5 | 0.00 | 0.08 | 0.00 | 36 | 1019.1 |
| 20260510155601 | 13 | 247 | 6.4 | 22.5 | 0.00 | 0.08 | 0.00 | 37 | 1019.0 |
| 20260510155100 | 12 | 320 | 11.3 | 20.9 | 0.00 | 0.08 | 0.00 | 36 | 1018.9 |
| 20260510154556 | 12 | 302 | 8.0 | 20.9 | 0.00 | 0.08 | 0.00 | 38 | 1018.9 |
| 20260510154055 | 12 | 292 | 9.7 | 17.7 | 0.00 | 0.08 | 0.00 | 41 | 1018.8 |
| 20260510153553 | 12 | 284 | 4.8 | 14.5 | 0.00 | 0.08 | 0.00 | 38 | 1018.8 |
| 20260510153052 | 12 | 350 | 1.6 | 14.5 | 0.00 | 0.08 | 0.00 | 42 | 1018.7 |
| 20260510152556 | 12 | 283 | 4.8 | 16.1 | 0.00 | 0.08 | 0.00 | 45 | 1018.6 |
| 20260510152050 | 12 | 341 | 3.2 | 12.9 | 0.00 | 0.08 | 0.00 | 41 | 1018.6 |
| 20260510151551 | 11 | 334 | 1.6 | 14.5 | 0.00 | 0.08 | 0.00 | 44 | 1018.5 |
| 20260510151049 | 11 | 336 | 3.2 | 19.3 | 0.00 | 0.08 | 0.00 | 45 | 1018.5 |
| 20260510150552 | 11 | 304 | 8.0 | 16.1 | 0.00 | 0.08 | 0.00 | 43 | 1018.5 |
| 20260510150048 | 11 | 294 | 6.4 | 17.7 | 0.00 | 0.08 | 0.00 | 42 | 1018.5 |
| 20260510145546 | 11 | 309 | 6.4 | 20.9 | 0.00 | 0.08 | 0.00 | 44 | 1018.4 |
| 20260510145046 | 11 | 251 | 8.0 | 20.9 | 0.00 | 0.08 | 0.00 | 40 | 1018.3 |
| 20260510144549 | 11 | 273 | 4.8 | 16.1 | 0.00 | 0.08 | 0.00 | 43 | 1018.3 |
| 20260510144045 | 11 | 344 | 0.0 | 16.1 | 0.00 | 0.08 | 0.00 | 47 | 1018.2 |
| 20260510143545 | 11 | 313 | 4.8 | 16.1 | 0.00 | 0.08 | 0.00 | 44 | 1018.3 |
| 20260510143044 | 11 | 340 | 0.0 | 8.0 | 0.00 | 0.08 | 0.00 | 46 | 1018.2 |
| 20260510142543 | 10 | 292 | 1.6 | 6.4 | 0.00 | 0.08 | 0.00 | 47 | 1018.0 |
| 20260510142048 | 10 | 296 | 1.6 | 12.9 | 0.00 | 0.08 | 0.00 | 49 | 1018.0 |
| 20260510141549 | 10 | 294 | 3.2 | 12.9 | 0.00 | 0.08 | 0.00 | 46 | 1018.1 |
| 20260510141043 | 10 | 264 | 1.6 | 12.9 | 0.00 | 0.08 | 0.00 | 52 | 1018.0 |
| 20260510140545 | 10 | 321 | 3.2 | 9.7 | 0.00 | 0.08 | 0.00 | 46 | 1017.9 |
| 20260510140041 | 10 | 311 | 1.6 | 6.4 | 0.00 | 0.08 | 0.00 | 48 | 1018.0 |
| 20260510135541 | 10 | 311 | 1.6 | 14.5 | 0.00 | 0.08 | 0.00 | 49 | 1018.1 |
| 20260510135041 | 10 | 288 | 4.8 | 14.5 | 0.00 | 0.08 | 0.00 | 48 | 1018.1 |
| 20260510134539 | 10 | 317 | 0.0 | 11.3 | 0.00 | 0.08 | 0.00 | 51 | 1017.8 |
| 20260510134040 | 10 | 15 | 1.6 | 8.0 | 0.00 | 0.08 | 0.00 | 52 | 1018.0 |
| 20260510133539 | 9 | 325 | 3.2 | 8.0 | 0.00 | 0.08 | 0.00 | 52 | 1017.9 |
| 20260510133049 | 9 | 317 | 1.6 | 14.5 | 0.00 | 0.08 | 0.00 | 55 | 1017.9 |
| 20260510132538 | 9 | 290 | 3.2 | 16.1 | 0.00 | 0.08 | 0.00 | 53 | 1017.8 |
| 20260510132037 | 9 | 82 | 3.2 | 9.7 | 0.00 | 0.08 | 0.00 | 54 | 1017.7 |
| 20260510131536 | 9 | 323 | 1.6 | 9.7 | 0.00 | 0.08 | 0.00 | 54 | 1017.7 |
| 20260510131035 | 8 | 309 | 0.0 | 11.3 | 0.00 | 0.08 | 0.00 | 55 | 1017.7 |
| 20260510130535 | 8 | 26 | 0.0 | 4.8 | 0.00 | 0.08 | 0.00 | 58 | 1017.5 |
| 20260510130035 | 8 | 26 | 0.0 | 4.8 | 0.00 | 0.08 | 0.00 | 55 | 1017.5 |
| 20260510125534 | 8 | 57 | 0.0 | 6.4 | 0.00 | 0.08 | 0.00 | 57 | 1017.4 |
| 20260510125034 | 8 | 50 | 1.6 | 6.4 | 0.00 | 0.08 | 0.00 | 56 | 1017.4 |
| 20260510124535 | 8 | 360 | 0.0 | 8.0 | 0.00 | 0.08 | 0.00 | 58 | 1017.5 |
| 20260510124033 | 8 | 61 | 1.6 | 8.0 | 0.00 | 0.08 | 0.00 | 56 | 1017.3 |
| 20260510123534 | 7 | 65 | 0.0 | 8.0 | 0.00 | 0.08 | 0.00 | 58 | 1017.3 |
| 20260510123035 | 7 | 67 | 3.2 | 9.7 | 0.00 | 0.08 | 0.00 | 57 | 1017.2 |
| 20260510122533 | 7 | 70 | 1.6 | 9.7 | 0.00 | 0.08 | 0.00 | 58 | 1017.1 |
| 20260510122031 | 7 | 323 | 0.0 | 8.0 | 0.00 | 0.08 | 0.00 | 60 | 1017.2 |
| 20260510121531 | 7 | 309 | 0.0 | 8.0 | 0.00 | 0.08 | 0.00 | 62 | 1017.1 |
| 20260510121033 | 7 | 288 | 1.6 | 9.7 | 0.00 | 0.08 | 0.00 | 61 | 1017.1 |
| 20260510120529 | 6 | 66 | 1.6 | 9.7 | 0.00 | 0.08 | 0.00 | 62 | 1017.0 |
| 20260510120031 | 6 | 280 | 3.2 | 8.0 | 0.00 | 0.08 | 0.00 | 65 | 1017.0 |
| 20260510115531 | 6 | 99 | 0.0 | 4.8 | 0.00 | 0.08 | 0.00 | 65 | 1016.9 |
| 20260510115027 | 6 | 31 | 0.0 | 6.4 | 0.00 | 0.08 | 0.00 | 66 | 1016.9 |
| 20260510114527 | 5 | 311 | 0.0 | 8.0 | 0.00 | 0.08 | 0.00 | 67 | 1016.7 |
| 20260510114027 | 5 | 302 | 0.0 | 6.4 | 0.00 | 0.08 | 0.00 | 68 | 1016.5 |
| 20260510113525 | 5 | 308 | 0.0 | 6.4 | 0.00 | 0.08 | 0.00 | 68 | 1016.5 |
| 20260510113025 | 5 | 289 | 0.0 | 8.0 | 0.00 | 0.08 | 0.00 | 69 | 1016.5 |
| 20260510112524 | 5 | 295 | 3.2 | 8.0 | 0.00 | 0.08 | 0.00 | 68 | 1016.4 |
| 20260510112027 | 5 | 290 | 1.6 | 8.0 | 0.00 | 0.08 | 0.00 | 69 | 1016.3 |
| 20260510111524 | 4 | 360 | 3.2 | 8.0 | 0.00 | 0.08 | 0.00 | 69 | 1016.3 |
| 20260510111022 | 4 | 285 | 3.2 | 8.0 | 0.00 | 0.08 | 0.00 | 69 | 1016.2 |
| 20260510110522 | 4 | 283 | 3.2 | 8.0 | 0.00 | 0.08 | 0.00 | 69 | 1016.1 |
| 20260510110026 | 4 | 286 | 1.6 | 8.0 | 0.00 | 0.08 | 0.00 | 70 | 1016.1 |
| 20260510105521 | 4 | 284 | 1.6 | 6.4 | 0.00 | 0.08 | 0.00 | 70 | 1016.1 |
| 20260510105020 | 4 | 283 | 3.2 | 6.4 | 0.00 | 0.08 | 0.00 | 70 | 1016.0 |
| 20260510104519 | 4 | 360 | 1.6 | 4.8 | 0.00 | 0.08 | 0.00 | 71 | 1016.0 |
| 20260510104019 | 4 | 360 | 1.6 | 4.8 | 0.00 | 0.08 | 0.00 | 71 | 1015.8 |
| 20260510103519 | 4 | 360 | 1.6 | 4.8 | 0.00 | 0.08 | 0.00 | 71 | 1015.7 |
| 20260510103019 | 4 | 360 | 1.6 | 4.8 | 0.00 | 0.08 | 0.00 | 71 | 1015.7 |
| 20260510102519 | 4 | 360 | 1.6 | 4.8 | 0.00 | 0.08 | 0.00 | 71 | 1015.8 |
| 20260510102017 | 4 | 360 | 1.6 | 4.8 | 0.00 | 0.08 | 0.00 | 71 | 1015.7 |
| 20260510101516 | 4 | 360 | 1.6 | 4.8 | 0.00 | 0.08 | 0.00 | 71 | 1015.6 |
| 20260510101015 | 4 | 360 | 0.0 | 4.8 | 0.00 | 0.08 | 0.00 | 70 | 1015.5 |
| 20260510100515 | 4 | 360 | 1.6 | 4.8 | 0.00 | 0.08 | 0.00 | 70 | 1015.4 |
| 20260510100013 | 4 | 360 | 1.6 | 4.8 | 0.00 | 0.08 | 0.00 | 71 | 1015.4 |
| 20260510095511 | 4 | 360 | 1.6 | 4.8 | 0.00 | 0.08 | 0.00 | 71 | 1015.4 |
| 20260510095011 | 4 | 360 | 0.0 | 3.2 | 0.00 | 0.08 | 0.00 | 71 | 1015.2 |
| 20260510094511 | 4 | 360 | 0.0 | 3.2 | 0.00 | 0.08 | 0.00 | 70 | 1015.2 |
| 20260510094010 | 5 | 283 | 0.0 | 3.2 | 0.00 | 0.08 | 0.00 | 70 | 1015.3 |
| 20260510093509 | 5 | 360 | 0.0 | 3.2 | 0.00 | 0.08 | 0.00 | 70 | 1015.0 |
| 20260510093008 | 5 | 282 | 0.0 | 1.6 | 0.00 | 0.08 | 0.00 | 70 | 1015.0 |
| 20260510092508 | 5 | 283 | 0.0 | 1.6 | 0.00 | 0.08 | 0.00 | 70 | 1015.0 |
| 20260510092008 | 5 | 283 | 0.0 | 3.2 | 0.00 | 0.08 | 0.00 | 70 | 1015.0 |
| 20260510091511 | 5 | 283 | 0.0 | 3.2 | 0.00 | 0.08 | 0.00 | 70 | 1014.9 |
| 20260510091006 | 5 | 283 | 0.0 | 6.4 | 0.00 | 0.08 | 0.00 | 70 | 1014.7 |
| 20260510090508 | 5 | 283 | 1.6 | 6.4 | 0.00 | 0.08 | 0.00 | 70 | 1014.6 |
| 20260510090005 | 5 | 42 | 1.6 | 4.8 | 0.00 | 0.08 | 0.00 | 70 | 1014.6 |
| 20260510085503 | 5 | 43 | 0.0 | 3.2 | 0.00 | 0.08 | 0.00 | 70 | 1014.5 |
| 20260510085002 | 5 | 44 | 0.0 | 3.2 | 0.00 | 0.08 | 0.00 | 71 | 1014.3 |
| 20260510084502 | 5 | 61 | 0.0 | 3.2 | 0.00 | 0.08 | 0.00 | 71 | 1014.1 |
| 20260510084003 | 5 | 61 | 0.0 | 0.0 | 0.00 | 0.08 | 0.00 | 70 | 1014.1 |
| 20260510083601 | 5 | 62 | 0.0 | 0.0 | 0.00 | 0.08 | 0.00 | 70 | 1014.1 |
| 20260510083100 | 5 | 61 | 0.0 | 0.0 | 0.00 | 0.08 | 0.00 | 70 | 1014.0 |
| 20260510082558 | 5 | 61 | 0.0 | 1.6 | 0.00 | 0.08 | 0.00 | 69 | 1013.9 |
| 20260510082058 | 5 | 64 | 0.0 | 1.6 | 0.00 | 0.08 | 0.00 | 68 | 1013.7 |
| 20260510081557 | 6 | 360 | 0.0 | 0.0 | 0.00 | 0.08 | 0.00 | 68 | 1013.7 |
| 20260510081056 | 6 | 59 | 0.0 | 0.0 | 0.00 | 0.08 | 0.00 | 67 | 1013.6 |
| 20260510080555 | 6 | 59 | 0.0 | 0.0 | 0.00 | 0.08 | 0.00 | 67 | 1013.5 |
| 20260510080054 | 6 | 59 | 0.0 | 1.6 | 0.00 | 0.08 | 0.00 | 66 | 1013.5 |
| 20260510075552 | 6 | 59 | 0.0 | 1.6 | 0.00 | 0.08 | 0.00 | 65 | 1013.4 |
| 20260510075051 | 7 | 59 | 0.0 | 0.0 | 0.00 | 0.08 | 0.00 | 64 | 1013.3 |
| 20260510074550 | 7 | 59 | 0.0 | 0.0 | 0.00 | 0.08 | 0.00 | 63 | 1013.1 |
| 20260510074049 | 7 | 60 | 0.0 | 1.6 | 0.00 | 0.08 | 0.00 | 62 | 1013.1 |
| 20260510073548 | 7 | 59 | 0.0 | 3.2 | 0.00 | 0.08 | 0.00 | 62 | 1013.0 |
| 20260510073103 | 7 | 59 | 0.0 | 3.2 | 0.00 | 0.08 | 0.00 | 61 | 1013.0 |
| 20260510072546 | 7 | 59 | 0.0 | 3.2 | 0.00 | 0.08 | 0.00 | 61 | 1013.0 |
| 20260510072044 | 8 | 63 | 0.0 | 1.6 | 0.00 | 0.08 | 0.00 | 60 | 1013.0 |
| 20260510071551 | 8 | 360 | 0.0 | 3.2 | 0.00 | 0.08 | 0.00 | 59 | 1012.9 |
| 20260510071041 | 8 | 360 | 0.0 | 3.2 | 0.00 | 0.08 | 0.00 | 58 | 1012.8 |
| 20260510070544 | 8 | 360 | 0.0 | 4.8 | 0.00 | 0.08 | 0.00 | 58 | 1012.8 |
| 20260510070043 | 8 | 64 | 0.0 | 4.8 | 0.00 | 0.08 | 0.00 | 58 | 1012.7 |
| 20260510065539 | 8 | 61 | 0.0 | 4.8 | 0.00 | 0.08 | 0.00 | 57 | 1012.6 |
| 20260510065038 | 8 | 59 | 0.0 | 8.0 | 0.00 | 0.08 | 0.00 | 57 | 1012.4 |
| 20260510064548 | 8 | 59 | 0.0 | 8.0 | 0.00 | 0.08 | 0.00 | 57 | 1012.4 |
| 20260510064037 | 8 | 298 | 0.0 | 3.2 | 0.00 | 0.08 | 0.00 | 57 | 1012.3 |
| 20260510063537 | 8 | 311 | 0.0 | 4.8 | 0.00 | 0.08 | 0.00 | 59 | 1012.3 |
| 20260510063040 | 8 | 311 | 0.0 | 4.8 | 0.00 | 0.08 | 0.00 | 59 | 1012.3 |
| 20260510062536 | 9 | 305 | 0.0 | 8.0 | 0.00 | 0.08 | 0.00 | 60 | 1012.2 |
| 20260510062034 | 9 | 305 | 0.0 | 8.0 | 0.00 | 0.08 | 0.00 | 59 | 1012.1 |
| 20260510061534 | 9 | 5 | 0.0 | 4.8 | 0.00 | 0.08 | 0.00 | 59 | 1012.0 |
| 20260510061033 | 9 | 355 | 0.0 | 4.8 | 0.00 | 0.08 | 0.00 | 59 | 1011.9 |
| 20260510060532 | 9 | 355 | 0.0 | 3.2 | 0.00 | 0.08 | 0.00 | 60 | 1011.8 |
| 20260510060032 | 9 | 355 | 0.0 | 3.2 | 0.00 | 0.08 | 0.00 | 59 | 1011.8 |
| 20260510055530 | 9 | 355 | 0.0 | 3.2 | 0.00 | 0.08 | 0.00 | 59 | 1011.7 |
| 20260510055031 | 9 | 355 | 0.0 | 3.2 | 0.00 | 0.08 | 0.00 | 60 | 1011.6 |
| 20260510054529 | 9 | 350 | 0.0 | 1.6 | 0.00 | 0.08 | 0.00 | 60 | 1011.5 |
| 20260510054030 | 10 | 355 | 0.0 | 3.2 | 0.00 | 0.08 | 0.00 | 59 | 1011.4 |
| 20260510053527 | 10 | 355 | 0.0 | 1.6 | 0.00 | 0.08 | 0.00 | 59 | 1011.3 |
| 20260510053026 | 10 | 355 | 0.0 | 4.8 | 0.00 | 0.08 | 0.00 | 58 | 1011.2 |
| 20260510052528 | 10 | 355 | 0.0 | 4.8 | 0.00 | 0.08 | 0.00 | 58 | 1011.1 |
| 20260510052024 | 10 | 14 | 0.0 | 1.6 | 0.00 | 0.08 | 0.00 | 58 | 1011.1 |
| 20260510051527 | 10 | 14 | 0.0 | 3.2 | 0.00 | 0.08 | 0.00 | 58 | 1010.9 |
| 20260510051023 | 11 | 14 | 0.0 | 4.8 | 0.00 | 0.08 | 0.00 | 57 | 1010.9 |
| 20260510050523 | 11 | 15 | 0.0 | 3.2 | 0.00 | 0.08 | 0.00 | 57 | 1010.9 |
| 20260510050020 | 11 | 15 | 0.0 | 3.2 | 0.00 | 0.08 | 0.00 | 56 | 1010.7 |
| 20260510045520 | 11 | 27 | 0.0 | 3.2 | 0.00 | 0.08 | 0.00 | 57 | 1010.7 |
| 20260510045019 | 11 | 27 | 0.0 | 3.2 | 0.00 | 0.08 | 0.00 | 56 | 1010.7 |
| 20260510044520 | 11 | 5 | 0.0 | 8.0 | 0.00 | 0.08 | 0.00 | 56 | 1010.5 |
| 20260510044017 | 11 | 347 | 0.0 | 4.8 | 0.00 | 0.08 | 0.00 | 57 | 1010.5 |
| 20260510043517 | 11 | 344 | 0.0 | 4.8 | 0.00 | 0.08 | 0.00 | 57 | 1010.4 |
| 20260510043016 | 11 | 308 | 0.0 | 4.8 | 0.00 | 0.08 | 0.00 | 57 | 1010.4 |
| 20260510042515 | 11 | 302 | 0.0 | 4.8 | 0.00 | 0.08 | 0.00 | 57 | 1010.4 |
| 20260510042014 | 11 | 52 | 0.0 | 3.2 | 0.00 | 0.08 | 0.00 | 57 | 1010.4 |
| 20260510041513 | 11 | 52 | 0.0 | 3.2 | 0.00 | 0.08 | 0.00 | 57 | 1010.3 |
| 20260510041012 | 12 | 54 | 0.0 | 3.2 | 0.00 | 0.08 | 0.00 | 57 | 1010.1 |
| 20260510040512 | 12 | 53 | 0.0 | 6.4 | 0.00 | 0.08 | 0.00 | 57 | 1010.1 |
| 20260510040015 | 12 | 53 | 0.0 | 8.0 | 0.00 | 0.08 | 0.00 | 56 | 1010.0 |
| 20260510035509 | 12 | 47 | 0.0 | 8.0 | 0.00 | 0.08 | 0.08 | 56 | 1009.9 |
| 20260510035011 | 12 | 48 | 0.0 | 11.3 | 0.00 | 0.08 | 0.08 | 56 | 1009.8 |
| 20260510034509 | 12 | 68 | 3.2 | 11.3 | 0.00 | 0.08 | 0.08 | 56 | 1009.8 |
| 20260510034009 | 12 | 57 | 1.6 | 16.1 | 0.00 | 0.08 | 0.08 | 56 | 1009.8 |
| 20260510033507 | 13 | 61 | 1.6 | 6.4 | 0.00 | 0.08 | 0.08 | 56 | 1009.7 |
| 20260510033008 | 13 | 80 | 1.6 | 14.5 | 0.00 | 0.08 | 0.08 | 55 | 1009.5 |
| 20260510032506 | 13 | 50 | 1.6 | 14.5 | 0.00 | 0.08 | 0.08 | 54 | 1009.4 |
| 20260510032005 | 13 | 55 | 0.0 | 6.4 | 0.00 | 0.08 | 0.08 | 53 | 1009.4 |
| 20260510031511 | 13 | 355 | 0.0 | 9.7 | 0.00 | 0.08 | 0.08 | 50 | 1009.2 |
| 20260510031004 | 14 | 42 | 0.0 | 6.4 | 0.00 | 0.08 | 0.08 | 50 | 1009.1 |
| 20260510030507 | 14 | 319 | 0.0 | 8.0 | 0.00 | 0.08 | 0.08 | 50 | 1009.0 |
| 20260510030008 | 14 | 319 | 1.6 | 9.7 | 0.00 | 0.08 | 0.08 | 50 | 1009.0 |
| 20260510025502 | 14 | 325 | 3.2 | 9.7 | 0.00 | 0.08 | 0.08 | 49 | 1008.9 |
| 20260510025002 | 15 | 345 | 1.6 | 8.0 | 0.00 | 0.08 | 0.08 | 49 | 1008.8 |
| 20260510024502 | 15 | 323 | 0.0 | 6.4 | 0.00 | 0.08 | 0.08 | 50 | 1008.8 |
| 20260510024001 | 15 | 325 | 1.6 | 9.7 | 0.00 | 0.08 | 0.08 | 49 | 1008.7 |
| 20260510023600 | 15 | 320 | 1.6 | 9.7 | 0.00 | 0.08 | 0.08 | 49 | 1008.6 |
| 20260510023100 | 15 | 256 | 1.6 | 12.9 | 0.00 | 0.08 | 0.08 | 48 | 1008.4 |
| 20260510022600 | 15 | 360 | 1.6 | 12.9 | 0.00 | 0.08 | 0.08 | 48 | 1008.3 |
| 20260510022100 | 15 | 331 | 1.6 | 14.5 | 0.00 | 0.08 | 0.08 | 47 | 1008.1 |
| 20260510021603 | 15 | 322 | 1.6 | 14.5 | 0.00 | 0.08 | 0.08 | 47 | 1007.9 |
| 20260510021059 | 15 | 292 | 1.6 | 12.9 | 0.00 | 0.08 | 0.08 | 49 | 1007.9 |
| 20260510020559 | 15 | 300 | 1.6 | 14.5 | 0.00 | 0.08 | 0.08 | 50 | 1007.8 |
| 20260510020100 | 15 | 42 | 1.6 | 14.5 | 0.00 | 0.08 | 0.08 | 50 | 1007.5 |
| 20260510015559 | 15 | 304 | 3.2 | 14.5 | 0.00 | 0.08 | 0.08 | 51 | 1007.5 |
| 20260510015102 | 15 | 282 | 1.6 | 14.5 | 0.00 | 0.08 | 0.08 | 52 | 1007.1 |
| 20260510014618 | 15 | 315 | 3.2 | 12.9 | 0.00 | 0.08 | 0.08 | 52 | 1007.0 |
| 20260510014058 | 15 | 306 | 3.2 | 9.7 | 0.00 | 0.08 | 0.08 | 53 | 1006.7 |
| 20260510013601 | 15 | 300 | 4.8 | 11.3 | 0.00 | 0.08 | 0.08 | 54 | 1006.7 |
| 20260510013103 | 15 | 304 | 3.2 | 8.0 | 0.00 | 0.08 | 0.08 | 54 | 1006.5 |
| 20260510012558 | 15 | 310 | 0.0 | 4.8 | 0.00 | 0.08 | 0.08 | 54 | 1006.4 |
| 20260510012058 | 15 | 310 | 0.0 | 3.2 | 0.00 | 0.08 | 0.08 | 54 | 1006.3 |
| 20260510011558 | 16 | 310 | 0.0 | 3.2 | 0.00 | 0.08 | 0.08 | 52 | 1006.2 |
| 20260510011057 | 16 | 310 | 0.0 | 6.4 | 0.00 | 0.08 | 0.08 | 53 | 1006.1 |
| 20260510010557 | 16 | 310 | 0.0 | 6.4 | 0.00 | 0.08 | 0.08 | 51 | 1006.0 |
| 20260510010057 | 16 | 310 | 0.0 | 4.8 | 0.00 | 0.08 | 0.08 | 51 | 1005.9 |
| 20260510005557 | 16 | 310 | 0.0 | 4.8 | 0.00 | 0.08 | 0.08 | 51 | 1005.9 |
| 20260510005056 | 16 | 310 | 0.0 | 1.6 | 0.00 | 0.08 | 0.08 | 49 | 1005.9 |
| 20260510004557 | 17 | 310 | 0.0 | 4.8 | 0.00 | 0.08 | 0.08 | 49 | 1005.7 |
| 20260510004100 | 17 | 310 | 0.0 | 4.8 | 0.00 | 0.08 | 0.08 | 49 | 1005.6 |
| 20260510003556 | 17 | 310 | 0.0 | 3.2 | 0.00 | 0.08 | 0.08 | 47 | 1005.5 |
| 20260510003103 | 17 | 310 | 0.0 | 9.7 | 0.00 | 0.08 | 0.08 | 47 | 1005.5 |
| 20260510002557 | 17 | 310 | 3.2 | 9.7 | 0.00 | 0.08 | 0.08 | 46 | 1005.4 |
| 20260510002056 | 17 | 277 | 4.8 | 11.3 | 0.00 | 0.08 | 0.08 | 45 | 1005.2 |
| 20260510001556 | 17 | 298 | 1.6 | 17.7 | 0.00 | 0.08 | 0.08 | 45 | 1005.0 |
| 20260510001056 | 18 | 306 | 3.2 | 25.7 | 0.00 | 0.08 | 0.08 | 45 | 1005.0 |
| 20260510000556 | 18 | 300 | 8.0 | 25.7 | 0.00 | 0.08 | 0.08 | 43 | 1005.0 |
| 20260510000058 | 18 | 296 | 6.4 | 22.5 | 0.00 | 0.08 | 0.08 | 43 | 1005.0 |
| 20260509235555 | 18 | 289 | 11.3 | 22.5 | 0.00 | 0.08 | 0.08 | 43 | 1004.9 |
| 20260509235055 | 18 | 317 | 8.0 | 22.5 | 0.00 | 0.08 | 0.08 | 43 | 1004.8 |
| 20260509234555 | 18 | 237 | 8.0 | 19.3 | 0.00 | 0.08 | 0.08 | 42 | 1004.8 |
| 20260509234055 | 18 | 263 | 6.4 | 24.1 | 0.00 | 0.08 | 0.08 | 42 | 1004.7 |
| 20260509233558 | 18 | 317 | 6.4 | 24.1 | 0.00 | 0.08 | 0.08 | 41 | 1004.7 |
| 20260509233055 | 18 | 292 | 6.4 | 40.2 | 0.00 | 0.08 | 0.08 | 40 | 1004.6 |
| 20260509232557 | 19 | 310 | 11.3 | 40.2 | 0.00 | 0.08 | 0.08 | 40 | 1004.5 |
| 20260509232054 | 19 | 257 | 12.9 | 33.8 | 0.00 | 0.08 | 0.08 | 39 | 1004.5 |
| 20260509231557 | 19 | 257 | 12.9 | 33.8 | 0.00 | 0.08 | 0.08 | 38 | 1004.5 |
| 20260509231053 | 19 | 275 | 8.0 | 25.7 | 0.00 | 0.08 | 0.08 | 38 | 1004.5 |
| 20260509230555 | 19 | 279 | 16.1 | 25.7 | 0.00 | 0.08 | 0.08 | 38 | 1004.4 |
| 20260509230056 | 20 | 308 | 11.3 | 33.8 | 0.00 | 0.08 | 0.08 | 38 | 1004.4 |
| 20260509225552 | 20 | 283 | 14.5 | 33.8 | 0.00 | 0.08 | 0.08 | 36 | 1004.3 |
| 20260509225054 | 20 | 283 | 14.5 | 33.8 | 0.00 | 0.08 | 0.08 | 36 | 1004.2 |
| 20260509224559 | 20 | 305 | 14.5 | 33.8 | 0.00 | 0.08 | 0.08 | 36 | 1004.1 |
| 20260509224052 | 20 | 275 | 12.9 | 43.5 | 0.00 | 0.08 | 0.08 | 35 | 1003.9 |
| 20260509223552 | 20 | 228 | 20.9 | 43.5 | 0.00 | 0.08 | 0.08 | 35 | 1003.8 |
| 20260509223056 | 20 | 315 | 17.7 | 38.6 | 0.00 | 0.08 | 0.08 | 36 | 1003.6 |
| 20260509222555 | 20 | 309 | 12.9 | 32.2 | 0.00 | 0.08 | 0.08 | 37 | 1003.5 |
| 20260509222051 | 20 | 263 | 16.1 | 35.4 | 0.00 | 0.08 | 0.08 | 36 | 1003.4 |
| 20260509221603 | 20 | 289 | 16.1 | 37.0 | 0.00 | 0.08 | 0.08 | 37 | 1003.3 |
| 20260509221051 | 20 | 271 | 8.0 | 20.9 | 0.00 | 0.08 | 0.08 | 39 | 1003.3 |
| 20260509220550 | 20 | 260 | 6.4 | 29.0 | 0.00 | 0.08 | 0.08 | 40 | 1003.1 |
| 20260509220051 | 20 | 309 | 4.8 | 29.0 | 0.00 | 0.08 | 0.08 | 40 | 1003.2 |
| 20260509215550 | 20 | 240 | 6.4 | 27.4 | 0.00 | 0.08 | 0.08 | 39 | 1003.1 |
| 20260509215050 | 20 | 259 | 11.3 | 27.4 | 0.00 | 0.08 | 0.08 | 38 | 1003.1 |
| 20260509214553 | 21 | 294 | 14.5 | 30.6 | 0.00 | 0.08 | 0.08 | 36 | 1003.0 |
| 20260509214050 | 21 | 275 | 17.7 | 30.6 | 0.00 | 0.08 | 0.08 | 35 | 1002.9 |
| 20260509213551 | 21 | 272 | 14.5 | 33.8 | 0.00 | 0.08 | 0.08 | 35 | 1002.9 |
| 20260509213049 | 21 | 258 | 11.3 | 33.8 | 0.00 | 0.08 | 0.08 | 34 | 1002.9 |
| 20260509212550 | 21 | 231 | 9.7 | 27.4 | 0.00 | 0.08 | 0.08 | 35 | 1002.9 |
| 20260509212050 | 21 | 313 | 12.9 | 33.8 | 0.00 | 0.08 | 0.08 | 34 | 1002.9 |
| 20260509211548 | 21 | 275 | 17.7 | 33.8 | 0.00 | 0.08 | 0.08 | 34 | 1002.9 |
| 20260509211047 | 21 | 234 | 12.9 | 29.0 | 0.00 | 0.08 | 0.08 | 35 | 1003.0 |
| 20260509210547 | 21 | 272 | 14.5 | 27.4 | 0.00 | 0.08 | 0.08 | 36 | 1002.9 |
| 20260509210052 | 21 | 269 | 12.9 | 27.4 | 0.00 | 0.08 | 0.08 | 37 | 1003.0 |
| 20260509205546 | 21 | 221 | 11.3 | 25.7 | 0.00 | 0.08 | 0.08 | 39 | 1003.1 |
| 20260509205044 | 20 | 315 | 12.9 | 25.7 | 0.00 | 0.08 | 0.08 | 40 | 1003.2 |
| 20260509204546 | 20 | 297 | 9.7 | 24.1 | 0.00 | 0.08 | 0.08 | 42 | 1003.0 |
| 20260509204043 | 20 | 305 | 8.0 | 25.7 | 0.00 | 0.08 | 0.08 | 46 | 1003.2 |
| 20260509203542 | 20 | 299 | 11.3 | 25.7 | 0.00 | 0.08 | 0.08 | 49 | 1003.3 |
| 20260509203044 | 20 | 310 | 8.0 | 22.5 | 0.00 | 0.08 | 0.08 | 50 | 1003.5 |
| 20260509202542 | 20 | 267 | 12.9 | 29.0 | 0.00 | 0.08 | 0.08 | 48 | 1003.5 |
| 20260509202042 | 20 | 312 | 6.4 | 20.9 | 0.00 | 0.08 | 0.08 | 54 | 1003.6 |
| 20260509201549 | 20 | 310 | 9.7 | 20.9 | 0.00 | 0.08 | 0.08 | 57 | 1003.6 |
| 20260509201042 | 20 | 308 | 6.4 | 20.9 | 0.00 | 0.08 | 0.08 | 57 | 1003.6 |
| 20260509200543 | 19 | 269 | 6.4 | 20.9 | 0.00 | 0.08 | 0.08 | 59 | 1003.5 |
| 20260509200051 | 18 | 298 | 6.4 | 19.3 | 0.00 | 0.08 | 0.08 | 60 | 1003.7 |
| 20260509195540 | 18 | 290 | 8.0 | 20.9 | 0.03 | 0.08 | 0.08 | 61 | 1003.7 |
| 20260509195040 | 18 | 277 | 6.4 | 16.1 | 0.08 | 0.08 | 0.08 | 64 | 1003.5 |
| 20260509194540 | 17 | 300 | 3.2 | 12.9 | 0.08 | 0.08 | 0.08 | 67 | 1003.7 |
| 20260509194039 | 17 | 272 | 4.8 | 12.9 | 0.08 | 0.08 | 0.08 | 74 | 1003.7 |
| 20260509193540 | 16 | 319 | 6.4 | 12.9 | 0.08 | 0.08 | 0.08 | 75 | 1003.7 |
| 20260509193042 | 15 | 275 | 4.8 | 14.5 | 0.08 | 0.08 | 0.08 | 80 | 1003.8 |
| 20260509192539 | 15 | 300 | 8.0 | 14.5 | 0.08 | 0.08 | 0.08 | 79 | 1003.9 |
| 20260509192039 | 14 | 237 | 3.2 | 9.7 | 0.08 | 0.08 | 0.08 | 81 | 1004.0 |
| 20260509191539 | 14 | 249 | 1.6 | 8.0 | 0.08 | 0.08 | 0.08 | 77 | 1004.2 |
| 20260509191042 | 14 | 249 | 1.6 | 12.9 | 0.08 | 0.08 | 0.08 | 75 | 1004.2 |
| 20260509190538 | 14 | 248 | 4.8 | 29.0 | 0.08 | 0.08 | 0.08 | 72 | 1004.3 |
| 20260509190043 | 15 | 304 | 9.7 | 41.8 | 0.08 | 0.08 | 0.08 | 69 | 1004.3 |
| 20260509185538 | 16 | 290 | 14.5 | 45.1 | 0.03 | 0.03 | 0.03 | 65 | 1004.2 |
| 20260509185037 | 17 | 299 | 16.1 | 45.1 | 0.00 | 0.00 | 0.00 | 56 | 1004.1 |
| 20260509184537 | 19 | 355 | 8.0 | 25.7 | 0.00 | 0.00 | 0.00 | 50 | 1003.9 |
| 20260509184037 | 19 | 262 | 12.9 | 22.5 | 0.00 | 0.00 | 0.00 | 52 | 1003.0 |
| 20260509183537 | 20 | 224 | 8.0 | 20.9 | 0.00 | 0.00 | 0.00 | 52 | 1002.7 |
| 20260509183039 | 20 | 176 | 8.0 | 20.9 | 0.00 | 0.00 | 0.00 | 52 | 1002.6 |
| 20260509182537 | 20 | 220 | 8.0 | 22.5 | 0.00 | 0.00 | 0.00 | 51 | 1002.6 |
| 20260509182036 | 20 | 232 | 11.3 | 30.6 | 0.00 | 0.00 | 0.00 | 50 | 1002.6 |
| 20260509181539 | 20 | 272 | 14.5 | 30.6 | 0.00 | 0.00 | 0.00 | 50 | 1002.4 |
| 20260509181036 | 20 | 247 | 9.7 | 19.3 | 0.00 | 0.00 | 0.00 | 51 | 1002.5 |
| 20260509180537 | 20 | 207 | 8.0 | 32.2 | 0.00 | 0.00 | 0.00 | 51 | 1002.5 |
| 20260509180036 | 20 | 199 | 11.3 | 32.2 | 0.00 | 0.00 | 0.00 | 49 | 1002.4 |
| 20260509175534 | 21 | 182 | 16.1 | 30.6 | 0.00 | 0.00 | 0.00 | 51 | 1002.5 |
| 20260509175034 | 21 | 184 | 9.7 | 27.4 | 0.00 | 0.00 | 0.00 | 52 | 1002.7 |
| 20260509174534 | 21 | 192 | 9.7 | 19.3 | 0.00 | 0.00 | 0.00 | 52 | 1002.8 |
| 20260509174033 | 21 | 244 | 6.4 | 24.1 | 0.00 | 0.00 | 0.00 | 53 | 1002.8 |
| 20260509173533 | 21 | 200 | 11.3 | 25.7 | 0.00 | 0.00 | 0.00 | 52 | 1002.8 |
| 20260509173032 | 21 | 240 | 6.4 | 24.1 | 0.00 | 0.00 | 0.00 | 53 | 1002.9 |
| 20260509172532 | 20 | 238 | 8.0 | 24.1 | 0.00 | 0.00 | 0.00 | 53 | 1002.9 |
| 20260509172030 | 20 | 213 | 6.4 | 25.7 | 0.00 | 0.00 | 0.00 | 54 | 1002.9 |
| 20260509171536 | 20 | 252 | 9.7 | 25.7 | 0.00 | 0.00 | 0.00 | 52 | 1002.9 |
| 20260509171027 | 20 | 234 | 11.3 | 33.8 | 0.00 | 0.00 | 0.00 | 52 | 1003.1 |
| 20260509170531 | 20 | 238 | 8.0 | 33.8 | 0.00 | 0.00 | 0.00 | 53 | 1003.1 |
| 20260509170031 | 20 | 249 | 6.4 | 24.1 | 0.00 | 0.00 | 0.00 | 53 | 1003.1 |
| 20260509165525 | 20 | 229 | 9.7 | 24.1 | 0.00 | 0.00 | 0.00 | 53 | 1002.9 |
| 20260509165026 | 19 | 235 | 9.7 | 19.3 | 0.00 | 0.00 | 0.00 | 54 | 1003.2 |